Location: Boquerón
(10.0687°N, 67.9212°W)
Time: 15:14:07
(UTC+00:00)

Daily predictions for brighter satellites

Satellite Brightness Start Highest point End
(mag) Time Altitude Azimuth Time Altitude Azimuth Time Altitude Azimuth
Cosmos 1515 3.4 23:07:40 10° S 23:11:06 62° E 23:14:31 10° NNE
Cosmos 1076 Rocket 3.5 23:07:10 10° N 23:11:24 67° E 23:15:40 10° SSE
Cosmos 921 Rocket 3.0 23:07:38 10° S 23:12:02 68° E 23:16:29 10° NNE
SAR-Lupe-2 3.5 23:09:10 10° SSE 23:12:43 74° ENE 23:16:16 10° N
ATLAS 3B R/B 4.4 23:08:07 10° NNE 23:12:50 17° ENE 23:17:24 10° E
GPS 2-14 Rocket1 3.8 23:11:12 10° NW 23:13:48 24° NNE 23:16:23 10° ENE
Cosmos 1378 2.9 23:17:47 10° S 23:20:58 51° E 23:24:07 10° NNE
CZ-4B R/B 3.7 23:20:12 10° SSE 23:24:44 46° ENE 23:29:19 10° N
Helios 1B rocket 4.4 23:23:35 10° SSW 23:26:59 29° W 23:30:23 10° NW
Cosmos 494 Rocket 3.9 23:22:04 10° S 23:27:10 82° ESE 23:32:14 10° NNE
Cosmos 2278 Rocket 2.5 23:22:39 10° NNW 23:28:15 71° WSW 23:33:51 10° S
ATLAS 5 CENTAUR R/B 3.9 23:23:36 10° NW 23:29:37 40° WSW 23:36:24 10° S
Centaur AC-119 4.3 23:26:45 10° S 23:30:03 23° SE 23:37:12 10° E
NOAA 6 4.3 23:26:01 10° S 23:31:05 71° WSW 23:36:11 10° NNW
CBERS 1 LM4 rocket 4.5 23:27:54 10° SSE 23:32:55 76° ENE 23:38:08 10° N
Cosmos 192 4.3 23:29:06 10° N 23:33:59 67° ENE 23:38:53 10° SSE
USA 308 4.3 23:33:23 10° WNW 23:35:58 24° SW 23:38:56 10° S
Radarsat Rocket 4.1 23:30:46 10° S 23:36:34 78° WSW 23:42:39 10° NNW
SJ-6B 4.1 23:35:03 16° ESE 23:36:39 21° ENE 23:39:28 10° NNE
Landsat 7 3.7 23:40:04 10° SSE 23:44:45 80° ENE 23:49:26 10° N
USA 290 3.1 23:43:14 10° NNE 23:46:07 31° ENE 23:46:55 27° ESE
Tsikada Rocket 4.2 23:41:18 10° SSE 23:47:12 49° E 23:53:08 10° NNE
Cosmos 1603 3.6 23:45:39 10° SSW 23:51:15 81° ESE 23:56:55 10° NNE
